Location: Newark
(34.9500°N, 139.9667°E)
Time: 22:33:01
(UTC+00:00)

Transit 2A - Pass Details

Date: 13 December 2019
Orbit: 601 x 958 km, 66.7° (Epoch: 24 January)

Event Time Altitude Azimuth Distance (km) Brightness Sun altitude
Rises 20:06:48 0° 196° (SSW) 3,170 9.2 -18.4°
Reaches altitude 10° 20:09:17 10° 193° (SSW) 2,193 8.4 -17.9°
Maximum altitude 20:14:09 60° 114° (ESE) 769 6.3 -17.0°
Drops below altitude 10° 20:18:37 10° 35° (NE) 2,024 8.4 -16.1°
Sets 20:20:50 0° 32° (NNE) 2,903 9.2 -15.7°
